Weather History for KSTK - August, 2014

Change the Weather History Date:

Saturday, August 30, 2014

  Actual Average Record
Temperature  
Mean Temperature 72 °F -  
Max Temperature 89 °F 88 °F 96 °F (2013)
Min Temperature 55 °F 55 °F 55 °F (2014)
Cooling Degree Days 7    
Growing Degree Days 22 (Base 50)    
Moisture  
Dew Point 56 °F    
Average Humidity 63    
Maximum Humidity 94    
Minimum Humidity 29    
Precipitation  
Precipitation 0.00 in - - ()
Sea Level Pressure  
Sea Level Pressure 29.96 in    
Wind  
Wind Speed 4 mph (SSW)    
Max Wind Speed 25 mph    
Max Gust Speed 37 mph    
Visibility 10 miles    
Events      
Averages and records for this station are not official NWS values.
T = Trace of Precipitation, MM = Missing Value Source: NWS Daily Summary

Daily Weather History Graph

Daily Weather History Graph

Search for Another Location

Airport or City:

Trip Planner

Search our weather history database for the weather conditions in past years. The results will help you decide how hot, cold, wet, or windy it might be!

Date:

Astronomy

Aug. 30, 2014 Rise Set
Actual Time 6:18 AM MDT 7:28 PM MDT
Civil Twilight 5:50 AM MDT 7:56 PM MDT
Nautical Twilight 5:16 AM MDT 8:29 PM MDT
Astronomical Twilight 4:41 AM MDT 9:05 PM MDT
Moon 11:09 AM MDT (8/30) 10:02 PM MDT (8/30)
Length of Visible Light 14h 06m
Length of Day
13h 09m
Waxing Crescent, 23% of the Moon is Illuminated
Aug 30
Waxing Crescent
Sep 2
First Quarter
Sep 8
Full
Sep 15
Last Quarter
Sep 24
New

Hourly Weather History & Observations

Time (MDT) Temp. Heat Index Dew Point Humidity Pressure Visibility Wind Dir Wind Speed Gust Speed Precip Events Conditions
12:10 AM 60.8 °F - 55.4 °F 82% 30.10 in 10.0 mi Calm Calm - N/A   Clear
12:30 AM 60.8 °F - 55.4 °F 82% 30.10 in 10.0 mi Calm Calm - N/A   Clear
12:50 AM 62.6 °F - 55.4 °F 77% 30.09 in 10.0 mi Calm Calm - N/A   Clear
1:10 AM 60.8 °F - 55.4 °F 82% 30.09 in 10.0 mi West 3.5 mph - N/A   Clear
1:30 AM 59.0 °F - 55.4 °F 88% 30.08 in 10.0 mi WSW 5.8 mph - N/A   Clear
1:50 AM 59.0 °F - 55.4 °F 88% 30.08 in 10.0 mi SW 4.6 mph - N/A   Clear
2:10 AM 60.8 °F - 55.4 °F 82% 30.08 in 10.0 mi SW 3.5 mph - N/A   Clear
2:30 AM 60.8 °F - 55.4 °F 82% 30.08 in 10.0 mi Calm Calm - N/A   Clear
2:50 AM 59.0 °F - 55.4 °F 88% 30.08 in 10.0 mi SW 4.6 mph - N/A   Clear
3:10 AM 59.0 °F - 55.4 °F 88% 30.07 in 10.0 mi Calm Calm - N/A   Clear
3:30 AM 59.0 °F - 55.4 °F 88% 30.06 in 10.0 mi Calm Calm - N/A   Clear
3:50 AM 57.2 °F - 55.4 °F 94% 30.05 in 10.0 mi South 3.5 mph - N/A   Clear
4:10 AM 57.2 °F - 55.4 °F 94% 30.04 in 10.0 mi SE 4.6 mph - N/A   Clear
4:30 AM 57.2 °F - 55.4 °F 94% 30.04 in 10.0 mi Calm Calm - N/A   Clear
4:50 AM 55.4 °F - 53.6 °F 94% 30.03 in 10.0 mi Calm Calm - N/A   Clear
5:10 AM 55.4 °F - 53.6 °F 94% 30.04 in 10.0 mi NNW 3.5 mph - N/A   Clear
5:30 AM 55.4 °F - 53.6 °F 94% 30.04 in 10.0 mi NW 4.6 mph - N/A   Clear
5:50 AM 55.4 °F - 53.6 °F 94% 30.04 in 10.0 mi WNW 4.6 mph - N/A   Clear
6:10 AM 55.4 °F - 53.6 °F 94% 30.04 in 10.0 mi Calm Calm - N/A   Clear
6:30 AM 57.2 °F - 55.4 °F 94% 30.04 in 10.0 mi Calm Calm - N/A   Clear
6:50 AM 57.2 °F - 55.4 °F 94% 30.04 in 10.0 mi Calm Calm - N/A   Clear
7:10 AM 57.2 °F - 55.4 °F 94% 30.03 in 10.0 mi South 4.6 mph - N/A   Clear
7:30 AM 59.0 °F - 57.2 °F 94% 30.03 in 10.0 mi Calm Calm - N/A   Clear
7:50 AM 60.8 °F - 59.0 °F 94% 30.03 in 10.0 mi Calm Calm - N/A   Clear
8:10 AM 62.6 °F - 59.0 °F 88% 30.03 in 10.0 mi Calm Calm - N/A   Clear
8:50 AM 68.0 °F - 60.8 °F 78% 30.02 in 10.0 mi South 5.8 mph - N/A   Clear
9:10 AM 68.0 °F - 60.8 °F 78% 30.01 in 10.0 mi South 6.9 mph - N/A   Clear
9:30 AM 69.8 °F - 60.8 °F 73% 30.01 in 10.0 mi South 6.9 mph - N/A   Clear
9:50 AM 71.6 °F - 59.0 °F 64% 30.01 in 10.0 mi SSW 5.8 mph - N/A   Clear
10:10 AM 71.6 °F - 59.0 °F 64% 30.00 in 10.0 mi SSW 4.6 mph - N/A   Clear
10:30 AM 73.4 °F - 59.0 °F 61% 30.00 in 10.0 mi SW 5.8 mph - N/A   Clear
10:50 AM 75.2 °F - 59.0 °F 57% 29.99 in 10.0 mi SW 4.6 mph - N/A   Clear
11:10 AM 77.0 °F - 59.0 °F 54% 29.98 in 10.0 mi SSW 5.8 mph - N/A   Clear
11:30 AM 77.0 °F - 59.0 °F 54% 29.97 in 10.0 mi South 6.9 mph - N/A   Clear
11:50 AM 78.8 °F - 60.8 °F 54% 29.97 in 10.0 mi SSW 6.9 mph - N/A   Clear
12:10 PM 78.8 °F - 60.8 °F 54% 29.95 in 10.0 mi SSW 6.9 mph - N/A   Clear
12:30 PM 80.6 °F 81.8 °F 62.6 °F 54% 29.94 in 10.0 mi SSW 6.9 mph - N/A   Clear
12:50 PM 80.6 °F 81.5 °F 60.8 °F 51% 29.93 in 10.0 mi SSE 8.1 mph - N/A   Clear
1:10 PM 82.4 °F 83.4 °F 62.6 °F 51% 29.93 in 10.0 mi South 8.1 mph - N/A   Clear
1:50 PM 86.0 °F 85.4 °F 59.0 °F 40% 29.91 in 10.0 mi SSW 10.4 mph - N/A   Clear
2:10 PM 86.0 °F 85.4 °F 59.0 °F 40% 29.90 in 10.0 mi South 9.2 mph - N/A   Clear
2:30 PM 87.8 °F 87.6 °F 60.8 °F 40% 29.89 in 10.0 mi SSW 8.1 mph - N/A   Clear
2:50 PM 87.8 °F 87.6 °F 60.8 °F 40% 29.88 in 10.0 mi South 6.9 mph - N/A   Clear
3:10 PM 89.6 °F 88.1 °F 57.2 °F 33% 29.86 in 10.0 mi South 8.1 mph - N/A   Clear
3:30 PM 89.6 °F 87.7 °F 55.4 °F 31% 29.86 in 10.0 mi SSW 9.2 mph - N/A   Clear
3:50 PM 89.6 °F 87.7 °F 55.4 °F 31% 29.84 in 10.0 mi SSW 9.2 mph - N/A   Clear
4:10 PM 89.6 °F 87.3 °F 53.6 °F 29% 29.84 in 10.0 mi SSW 8.1 mph - N/A   Clear
4:30 PM 89.6 °F 87.3 °F 53.6 °F 29% 29.83 in 10.0 mi SSW 6.9 mph - N/A   Clear
4:50 PM 89.6 °F 87.7 °F 55.4 °F 31% 29.82 in 10.0 mi SSW 8.1 mph - N/A   Clear
5:10 PM 89.6 °F 87.7 °F 55.4 °F 31% 29.82 in 10.0 mi SSW 6.9 mph - N/A   Clear
5:30 PM 87.8 °F 86.5 °F 57.2 °F 35% 29.82 in 10.0 mi SSW 4.6 mph - N/A   Clear
5:50 PM 86.0 °F 85.4 °F 59.0 °F 40% 29.82 in 10.0 mi SSW 5.8 mph - N/A   Clear
6:10 PM 82.4 °F 82.9 °F 60.8 °F 48% 29.82 in 10.0 mi SSW 4.6 mph - N/A   Clear
6:30 PM 82.4 °F 82.9 °F 60.8 °F 48% 29.82 in 10.0 mi SSW 4.6 mph - N/A   Clear
6:50 PM 80.6 °F 81.5 °F 60.8 °F 51% 29.82 in 10.0 mi SSW 6.9 mph - N/A   Clear
7:30 PM 77.0 °F - 59.0 °F 54% 29.83 in 10.0 mi WNW 4.6 mph - N/A   Clear
7:50 PM 78.8 °F - 51.8 °F 39% 29.85 in 10.0 mi NNW 21.9 mph 27.6 mph N/A   Scattered Clouds
8:10 PM 78.8 °F - 51.8 °F 39% 29.85 in 10.0 mi North 13.8 mph 17.3 mph N/A   Scattered Clouds
8:30 PM 77.0 °F - 51.8 °F 41% 29.88 in 10.0 mi NNW 8.1 mph - N/A   Mostly Cloudy
8:50 PM 77.0 °F - 51.8 °F 41% 29.89 in 10.0 mi SW 3.5 mph - N/A   Mostly Cloudy
9:10 PM 73.4 °F - 53.6 °F 50% 29.90 in 10.0 mi South 10.4 mph - N/A   Mostly Cloudy
9:30 PM 71.6 °F - 53.6 °F 53% 29.90 in 10.0 mi SW 5.8 mph - N/A   Scattered Clouds
9:50 PM 71.6 °F - 53.6 °F 53% 29.89 in 10.0 mi South 3.5 mph - N/A   Mostly Cloudy
10:10 PM 73.4 °F - 51.8 °F 47% 29.91 in 10.0 mi NNW 6.9 mph - N/A   Mostly Cloudy
10:30 PM 77.0 °F - 51.8 °F 41% 29.93 in 10.0 mi West 25.3 mph 36.8 mph N/A   Overcast
10:50 PM 77.0 °F - 50.0 °F 39% 29.92 in 10.0 mi WNW 16.1 mph 31.1 mph N/A   Mostly Cloudy
11:10 PM 75.2 °F - 50.0 °F 41% 29.91 in 10.0 mi NW 9.2 mph - N/A   Mostly Cloudy
11:30 PM 71.6 °F - 51.8 °F 50% 29.86 in 10.0 mi SE 8.1 mph - N/A   Scattered Clouds
11:50 PM 69.8 °F - 51.8 °F 53% 29.86 in 10.0 mi Calm Calm - N/A   Clear